Theta_e
316 315 315 315 316 316 316 315 315 314 313 312 312 313 314 318 319 320 317 318 318 318 319 320 319 318 317 320 320 326 341 343 340 338 332 324 323 318 317 318 316 316 316 315 312
317 316 315 314 315 315 316 316 316 315 314 313 312 312 314 318 320 318 319 319 318 319 320 319 320 320 325 324 324 331 341 340 333 329 326 321 321 319 318 317 316 316 314 313 311
320 317 316 315 314 315 315 316 316 316 315 314 312 312 314 319 319 320 319 318 318 319 321 320 319 324 325 324 324 322 335 328 324 320 320 318 317 317 318 318 317 316 314 312 311
320 320 317 315 315 314 315 316 316 316 316 315 313 312 316 320 321 321 319 319 319 320 322 320 323 326 324 325 321 326 320 322 319 317 318 319 316 318 314 317 315 314 313 311 309
318 320 320 317 315 314 314 315 316 316 316 316 314 312 317 318 321 322 320 319 319 320 319 322 324 324 326 323 322 322 319 316 315 315 314 314 315 314 314 315 313 312 311 310 308
315 318 319 319 316 314 314 314 316 317 317 316 314 312 317 318 321 322 321 321 318 323 321 321 323 322 320 317 320 317 317 316 315 314 313 315 314 315 313 313 313 312 311 309 307
310 315 318 319 318 314 313 314 316 317 317 316 314 312 315 319 321 321 322 321 318 318 322 321 320 323 319 319 318 318 319 318 316 314 314 315 315 314 313 314 313 312 310 308 306
308 310 316 318 320 314 313 313 316 317 316 315 313 313 317 317 320 320 318 318 318 318 320 320 319 319 319 318 320 321 321 325 318 315 313 315 321 313 313 314 313 311 310 307 304
308 308 312 316 320 315 313 314 316 315 316 314 313 316 317 317 319 317 317 318 318 319 320 320 320 320 320 324 325 322 328 323 319 316 315 315 319 313 312 314 312 311 310 307 304
310 308 308 315 320 315 313 315 315 318 317 316 316 315 315 317 317 316 317 318 317 319 321 320 320 322 323 325 329 326 326 323 324 319 316 317 317 313 312 312 313 311 309 307 305
310 310 307 314 320 314 314 316 318 318 317 313 312 313 314 318 315 316 317 318 318 320 323 318 325 327 326 323 323 324 325 325 321 318 318 318 319 313 312 311 311 311 309 307 305
310 310 307 315 320 313 312 312 312 311 318 316 317 317 317 318 316 315 316 319 319 322 319 321 326 324 324 318 322 324 325 324 318 318 319 318 319 315 312 312 311 311 309 307 304
310 311 308 317 319 313 311 312 313 313 317 316 317 318 316 316 315 316 316 317 319 321 321 325 320 320 322 320 321 318 321 320 321 318 317 318 320 316 312 311 310 309 309 307 305
310 310 309 320 314 312 312 313 317 315 315 315 319 319 314 314 316 314 314 317 318 321 319 320 314 315 319 321 320 322 317 318 320 322 324 318 323 318 314 311 308 308 308 307 305
311 310 312 320 315 313 312 315 318 314 317 314 317 316 312 317 315 314 313 317 319 318 319 320 316 315 316 316 315 316 316 317 317 316 315 318 321 320 311 313 311 308 308 307 305
312 309 314 320 315 313 314 317 314 317 316 315 315 314 315 314 312 312 314 315 314 315 313 314 311 314 314 311 312 311 313 312 311 313 317 315 319 316 316 315 312 308 308 307 305
312 309 317 316 311 313 315 311 315 317 313 314 314 314 315 315 312 313 316 317 319 321 318 314 313 312 312 313 312 312 315 317 316 315 314 312 318 318 313 312 311 310 308 307 304
311 311 316 319 314 314 315 316 314 312 313 312 313 313 316 315 314 311 315 317 313 316 315 319 318 313 312 314 315 313 315 321 316 316 316 312 316 316 310 308 309 308 307 305 303
311 314 317 318 319 315 315 318 317 311 311 312 314 314 315 315 315 312 315 316 315 315 322 319 319 310 310 310 313 312 314 313 314 311 313 312 312 311 309 308 306 305 305 304 303
313 315 316 317 316 316 318 318 315 313 315 315 314 314 316 315 315 314 313 313 315 313 314 317 317 310 309 308 309 313 312 314 314 315 314 313 313 315 314 312 308 306 305 304 302
314 315 313 315 313 316 321 319 317 314 314 316 315 315 315 315 314 313 314 312 311 310 313 314 318 312 310 310 311 311 312 312 313 314 315 313 313 312 315 313 311 308 305 303 302
312 314 312 313 314 311 319 318 314 313 313 314 314 315 316 315 315 314 315 313 309 313 315 313 316 314 312 310 307 308 312 314 317 313 313 313 317 312 312 312 310 307 304 304 302
313 313 312 313 316 314 313 315 315 316 315 315 315 314 313 315 318 314 314 311 311 312 316 314 315 315 313 313 311 310 310 312 312 313 315 317 317 309 310 310 308 307 304 303 300
311 314 316 313 308 313 314 314 315 313 314 314 316 313 314 316 314 316 313 312 309 310 311 316 315 320 319 318 314 312 308 311 314 314 314 314 313 311 311 311 306 306 304 302 300
309 312 312 317 316 311 313 313 315 315 313 312 313 313 315 316 317 313 312 312 309 309 313 316 319 315 314 313 312 311 309 310 311 311 315 313 310 310 309 310 307 305 303 301 299
311 312 308 312 313 315 311 313 314 313 314 315 315 316 315 316 316 318 314 312 314 309 313 314 317 315 316 314 313 314 311 308 308 308 309 308 309 308 306 305 305 304 302 301 299
306 306 308 305 311 315 316 312 313 313 313 312 317 318 319 317 315 316 314 312 312 312 314 314 316 317 317 314 313 318 316 312 311 309 311 312 311 308 308 307 306 304 303 301 299
Wind_Speed
13 13 14 15 17 19 21 21 24 24 24 25 25 26 23 18 10 4 3 5 11 16 16 6 5 8 8 5 6 3 5 6 9 13 10 12 7 5 5 7 4 3 10 20 21
13 14 15 15 17 20 20 22 23 24 25 25 26 26 24 17 6 4 4 9 12 15 8 5 3 3 5 4 4 4 3 7 6 8 12 10 7 10 5 10 10 19 22 21 16
13 14 16 17 18 19 21 22 23 23 25 26 26 26 25 11 1 1 8 10 10 13 8 3 6 4 6 5 5 4 3 8 5 10 15 10 7 4 17 5 11 22 18 17 15
13 14 15 18 19 20 21 22 23 24 24 25 26 26 20 3 3 1 9 10 10 8 6 2 4 4 5 5 3 7 8 6 11 9 9 10 9 12 3 4 16 18 21 17 13
13 14 15 17 20 21 22 23 23 24 24 24 25 22 8 2 4 1 7 10 8 8 5 2 4 5 6 7 8 12 8 9 13 15 11 11 8 7 7 15 21 21 17 15 14
13 14 16 17 20 22 23 24 24 23 24 23 23 16 4 2 2 3 7 8 11 15 9 3 5 11 12 7 5 9 18 15 10 10 8 11 6 2 7 16 17 16 14 13 13
13 14 16 18 20 22 24 25 24 24 24 23 17 10 2 9 3 6 6 5 5 3 4 5 9 5 8 13 15 19 17 12 8 5 4 15 3 3 16 17 17 14 12 12 12
13 14 15 18 20 22 25 25 25 24 23 17 10 2 5 3 7 4 3 3 4 6 14 22 21 12 6 18 5 8 6 6 7 6 9 2 3 7 18 19 17 15 13 11 11
12 13 14 16 20 22 26 27 26 20 11 7 0 1 7 8 3 1 2 3 4 8 11 11 8 6 7 14 6 1 6 4 8 11 8 9 1 12 17 17 16 14 13 12 10
12 12 13 15 18 21 26 27 13 3 2 2 2 2 4 3 5 4 1 3 5 5 4 5 5 4 6 5 5 7 5 5 8 13 10 11 7 15 18 18 17 15 13 12 11
12 11 12 13 16 19 25 8 6 2 5 2 2 3 4 10 3 1 1 3 3 5 4 2 3 9 20 4 2 9 6 6 5 7 7 14 10 15 19 17 17 16 15 13 12
10 10 10 11 14 16 11 5 3 4 6 4 6 6 10 3 3 3 1 3 2 4 4 3 5 10 9 3 7 7 5 4 3 4 13 6 17 7 20 24 22 19 17 15 12
8 8 8 9 12 6 5 5 13 4 2 6 5 4 4 8 3 4 3 2 3 4 3 5 1 11 9 7 4 2 3 5 2 7 2 5 7 8 11 16 15 16 17 15 15
7 7 6 7 6 6 2 11 9 6 3 5 3 5 4 5 3 2 2 2 2 6 6 2 3 7 7 5 6 5 4 7 14 9 3 4 5 6 11 16 14 16 17 16 15
8 6 4 3 6 3 5 13 2 3 1 2 3 1 1 7 4 1 1 2 4 4 3 4 5 5 4 3 4 2 6 6 4 3 2 4 4 3 2 11 19 16 17 17 16
8 5 4 3 5 5 12 9 2 3 5 1 2 3 4 1 1 2 2 5 3 3 4 2 1 1 3 4 2 13 6 6 4 2 3 2 5 4 4 4 4 15 18 18 17
7 5 3 3 1 7 12 2 3 3 4 2 2 3 3 3 1 2 3 3 4 4 2 2 2 1 4 7 3 3 4 1 1 2 4 1 5 7 3 5 5 15 18 18 17
6 6 5 9 4 11 7 3 3 2 4 4 3 2 5 5 2 2 4 3 1 3 3 6 3 5 2 2 5 3 3 4 4 3 1 3 5 2 1 6 7 6 13 16 16
6 3 3 3 6 5 3 2 5 4 3 6 3 1 2 2 4 2 4 5 6 8 4 5 2 1 3 2 1 4 4 2 5 2 1 2 4 3 2 2 5 10 13 15 16
8 4 1 1 1 2 3 3 2 3 3 2 2 1 2 2 3 5 6 3 5 7 3 6 3 1 1 2 5 2 7 3 1 3 4 2 5 3 2 5 6 9 12 14 14
7 2 3 5 5 3 3 4 3 4 3 4 4 4 3 4 3 3 2 2 4 4 2 4 3 0 2 4 7 3 2 4 3 2 2 2 3 3 2 2 10 11 13 16 15
4 2 5 12 3 1 3 4 2 3 4 5 3 3 3 6 3 3 5 3 1 4 7 2 4 3 3 1 2 3 4 5 3 4 1 0 5 1 4 5 7 10 13 14 14
3 2 4 1 3 1 2 2 2 4 4 5 3 4 2 3 4 3 5 5 5 2 7 7 1 3 1 1 1 4 5 4 5 3 6 3 3 1 2 1 3 12 13 14 14
3 2 2 2 1 4 3 0 2 4 3 3 4 1 3 4 1 4 6 3 5 3 5 5 3 6 8 4 4 5 6 7 5 3 5 6 3 4 4 3 6 9 12 14 13
2 2 2 4 3 2 4 4 6 4 2 1 0 2 3 3 5 2 2 5 2 1 3 1 5 2 3 2 2 3 7 11 8 5 6 2 6 4 2 2 8 10 12 14 14
2 2 1 2 3 9 0 5 5 4 3 3 3 7 7 6 6 13 3 3 6 2 1 2 3 2 0 2 0 3 4 10 5 3 6 2 5 2 3 8 10 12 14 15 14
2 1 2 2 4 6 7 4 6 3 4 2 1 2 4 5 4 5 5 2 2 3 4 2 5 3 3 2 2 5 8 10 5 4 6 5 3 5 4 6 9 12 14 15 15
Wind_Direction
331 335 335 338 339 342 339 342 343 346 347 347 347 346 346 340 353 35 54 347 334 333 334 358 98 123 74 70 52 109 95 154 153 165 146 155 136 67 61 115 61 55 136 132 139
326 329 332 333 335 336 337 336 337 342 344 345 345 343 344 338 351 48 26 354 343 343 346 33 114 73 65 62 41 58 110 157 156 139 146 144 121 126 109 113 100 96 109 128 135
322 325 327 330 330 331 330 330 334 339 342 342 342 340 341 334 27 231 5 358 345 348 348 60 98 77 69 46 23 48 108 137 105 118 130 126 110 105 128 124 162 148 141 139 131
319 322 323 326 327 327 327 327 331 335 338 338 339 338 339 334 176 140 6 359 355 355 6 49 58 69 74 75 49 102 51 114 128 123 112 128 118 129 356 145 142 142 140 137 134
309 321 321 323 324 324 324 325 327 329 332 332 335 337 350 6 247 310 359 6 10 15 12 98 73 111 98 99 92 95 108 75 105 97 95 109 114 120 106 127 134 138 137 135 125
299 311 320 321 321 322 322 322 322 324 324 325 329 334 344 274 268 347 337 359 21 54 50 56 118 110 82 51 43 106 104 107 89 95 106 122 130 131 157 145 141 141 134 133 126
293 302 314 320 321 320 321 318 318 319 318 318 321 329 310 245 292 323 336 357 13 61 95 82 128 75 118 94 111 109 102 92 93 103 110 122 180 220 158 161 149 145 139 137 135
291 298 306 317 322 321 318 316 314 315 312 311 309 312 255 285 303 321 39 39 34 75 93 99 90 88 83 129 114 107 96 135 182 155 165 213 206 175 165 166 164 158 154 147 137
291 298 303 314 324 323 319 317 312 308 314 316 297 136 271 307 279 357 41 73 63 92 115 89 70 87 127 125 111 43 161 148 175 206 166 220 212 174 174 178 174 172 167 155 141
285 301 304 314 325 327 324 319 314 304 333 355 70 346 293 322 319 335 99 91 92 104 100 52 69 106 142 182 175 178 166 183 184 193 193 195 227 173 183 187 187 183 177 169 161
278 298 307 314 328 335 338 351 10 351 21 240 242 251 277 319 320 316 61 104 92 73 152 69 134 180 182 181 150 148 146 175 211 174 167 215 240 186 189 199 195 193 186 180 167
269 291 307 317 328 337 359 68 86 281 313 276 250 265 268 264 309 296 168 130 109 168 135 117 210 207 159 107 106 138 147 188 82 157 197 199 245 211 197 209 204 195 190 182 164
257 283 302 319 326 354 45 78 347 163 243 293 223 228 209 156 230 259 144 133 133 143 167 176 259 142 161 181 165 146 182 173 168 115 142 142 254 219 217 216 212 202 194 184 177
243 271 294 317 322 344 92 342 349 163 22 268 251 266 177 141 268 246 171 132 59 174 149 137 137 138 151 194 177 249 174 146 141 150 212 198 276 241 215 216 214 196 187 184 177
228 248 270 310 317 314 328 339 66 126 354 239 213 22 21 161 150 34 27 70 168 153 163 183 160 148 145 198 140 162 137 127 138 121 152 180 268 246 148 231 222 203 193 186 179
218 231 243 272 275 300 321 330 128 44 250 300 212 162 117 349 99 106 118 57 120 93 40 86 30 82 130 72 104 146 97 65 66 93 250 225 225 262 205 227 245 201 197 184 173
209 214 199 223 324 331 332 40 60 177 339 312 232 162 137 161 179 137 153 149 167 134 156 39 356 27 120 92 73 101 115 314 275 189 248 145 189 277 222 253 266 205 195 179 168
193 196 201 242 303 329 350 61 170 261 278 325 5 49 183 159 194 127 121 189 206 95 134 162 211 177 175 152 173 174 168 169 247 218 269 149 238 257 260 309 275 214 175 166 162
158 136 204 276 304 320 68 140 201 227 308 333 314 118 264 246 161 154 195 199 202 177 187 167 199 26 48 128 165 167 196 126 108 83 233 233 264 207 261 40 120 139 155 165 162
127 149 200 126 265 74 79 222 225 239 302 339 360 45 251 256 183 176 183 203 204 187 180 188 117 359 134 114 47 173 140 128 49 227 250 232 271 260 249 213 184 177 172 167 163
138 116 352 180 126 54 174 217 279 281 325 29 18 342 343 326 229 221 213 242 186 150 115 136 117 246 154 203 177 148 173 64 116 158 229 288 251 204 232 237 210 195 176 172 168
133 105 3 148 90 57 161 202 353 324 345 27 94 64 14 341 295 254 227 272 12 160 156 174 116 161 189 223 190 190 191 165 161 189 102 20 270 148 273 288 221 174 170 172 165
110 100 45 39 152 159 244 245 353 7 12 18 27 26 354 354 344 7 344 355 334 223 169 185 143 112 31 339 218 217 188 143 107 107 187 169 260 196 319 2 155 154 165 165 158
118 112 57 73 108 151 126 80 169 341 276 224 268 167 23 22 309 317 336 327 330 307 355 95 149 174 211 190 139 195 178 175 146 158 159 228 268 241 256 227 148 157 163 161 158
39 171 176 163 185 132 172 194 181 246 249 225 23 169 114 319 343 247 231 308 283 327 339 155 207 135 35 16 192 199 180 181 198 160 190 201 204 282 345 261 171 158 153 154 158
133 132 31 103 126 174 160 212 173 215 214 256 261 274 271 253 233 287 221 191 247 341 245 306 198 126 70 356 33 225 179 190 199 181 255 206 262 92 73 109 141 162 163 166 166
167 106 118 349 109 150 213 198 211 230 278 199 356 323 333 278 291 257 212 182 251 275 201 199 145 130 220 16 12 289 221 189 179 174 156 192 196 160 142 154 167 168 172 171 171